Weather History for KSSF - February, 2012

Change the Weather History Date:

Monday, February 20, 2012

  Actual Average Record
Temperature  
Mean Temperature 58 °F -  
Max Temperature 69 °F 66 °F 84 °F (2011)
Min Temperature 46 °F 46 °F 35 °F (2006)
Degree Days  
Heating Degree Days 8    
Growing Degree Days 8 (Base 50)    
Moisture  
Dew Point 53 °F    
Average Humidity 88    
Maximum Humidity 100    
Minimum Humidity 63    
Precipitation  
Precipitation 0.00 in - - ()
Sea Level Pressure  
Sea Level Pressure 30.06 in    
Wind  
Wind Speed 3 mph (SE)    
Max Wind Speed 7 mph    
Max Gust Speed -    
Visibility 7 miles    
Events      
Averages and records for this station are not official NWS values.
T = Trace of Precipitation, MM = Missing Value Source: NWS Daily Summary

Daily Weather History Graph

Daily Weather History Graph

Search for Another Location

Airport or City:

Trip Planner

Search our weather history database for the weather conditions in past years. The results will help you decide how hot, cold, wet, or windy it might be!

Date:

Astronomy

Feb. 20, 2012 Rise Set
Actual Time 7:08 AM CST 6:26 PM CST
Civil Twilight 6:44 AM CST 6:50 PM CST
Nautical Twilight 6:16 AM CST 7:18 PM CST
Astronomical Twilight 5:49 AM CST 7:46 PM CST
Moon 6:03 AM CST (2/20) 5:33 PM CST (2/20)
Length of Visible Light 12h 06m
Length of Day
11h 17m
Waning Crescent, 1% of the Moon is Illuminated
Feb 20
Waning Crescent
Feb 21
New
Feb 29
First Quarter
Mar 8
Full
Mar 14
Last Quarter

Hourly Weather History & Observations

Time (CST) Temp. Windchill Dew Point Humidity Pressure Visibility Wind Dir Wind Speed Gust Speed Precip Events Conditions
12:53 AM 48.9 °F - 46.9 °F 93% 30.04 in 9.0 mi SE 6.9 mph - N/A   Clear
1:53 AM 48.0 °F - 46.9 °F 96% 30.03 in 7.0 mi ESE 5.8 mph - N/A   Clear
2:18 AM 48.2 °F - 46.4 °F 93% 30.02 in 7.0 mi SE 4.6 mph - N/A   Mostly Cloudy
2:38 AM 46.4 °F 45.2 °F 46.4 °F 100% 30.02 in 5.0 mi SSE 3.5 mph - N/A   Scattered Clouds
2:53 AM 46.9 °F - 46.9 °F 100% 30.01 in 5.0 mi SSE 3.5 mph - N/A   Clear
3:53 AM 46.9 °F - 46.0 °F 97% 30.00 in 4.0 mi Calm Calm - N/A   Clear
4:53 AM 46.0 °F - 45.0 °F 96% 30.00 in 4.0 mi Calm Calm - N/A   Clear
5:13 AM 46.4 °F - 46.4 °F 100% 30.00 in 5.0 mi Calm Calm - N/A   Mostly Cloudy
5:53 AM 48.0 °F - 46.9 °F 96% 30.01 in 5.0 mi Calm Calm - N/A   Overcast
6:53 AM 48.9 °F - 48.0 °F 97% 30.03 in 5.0 mi NNE 3.5 mph - N/A   Overcast
8:53 AM 53.1 °F - 50.0 °F 89% 30.06 in 8.0 mi East 3.5 mph - N/A   Overcast
9:17 AM 53.6 °F - 51.8 °F 94% 30.07 in 8.0 mi ESE 3.5 mph - N/A   Overcast
9:32 AM 55.4 °F - 51.8 °F 88% 30.08 in 10.0 mi SE 3.5 mph - N/A   Overcast
9:53 AM 55.9 °F - 52.0 °F 87% 30.09 in 10.0 mi ESE 4.6 mph - N/A   Overcast
10:53 AM 59.0 °F - 53.1 °F 81% 30.10 in 10.0 mi Calm Calm - N/A   Overcast
11:53 AM 60.1 °F - 54.0 °F 80% 30.10 in 10.0 mi Calm Calm - N/A   Overcast
12:53 PM 62.1 °F - 55.0 °F 78% 30.07 in 10.0 mi Calm Calm - N/A   Mostly Cloudy
1:53 PM 66.9 °F - 57.0 °F 70% 30.02 in 10.0 mi Variable 4.6 mph - N/A   Partly Cloudy
2:27 PM 66.2 °F - 57.2 °F 73% 30.02 in 10.0 mi Variable 6.9 mph - N/A   Mostly Cloudy
3:53 PM 69.1 °F - 55.9 °F 63% 29.99 in 10.0 mi SSW 5.8 mph - N/A   Partly Cloudy
4:53 PM 69.1 °F - 57.0 °F 65% 29.99 in 10.0 mi SSE 6.9 mph - N/A   Partly Cloudy
5:53 PM 66.9 °F - 57.0 °F 70% 30.01 in 10.0 mi SSE 3.5 mph - N/A   Clear
6:53 PM 64.0 °F - 55.9 °F 75% 30.04 in 10.0 mi Calm Calm - N/A   Clear
7:53 PM 61.0 °F - 55.9 °F 83% 30.06 in 10.0 mi ESE 4.6 mph - N/A   Clear
8:53 PM 60.1 °F - 57.9 °F 93% 30.08 in 10.0 mi ESE 4.6 mph - N/A   Clear
9:49 PM 59.0 °F - 57.2 °F 94% 30.11 in 8.0 mi Calm Calm - N/A   Mostly Cloudy
9:53 PM 59.0 °F - 57.0 °F 93% 30.11 in 8.0 mi Calm Calm - N/A   Mostly Cloudy
10:10 PM 60.8 °F - 57.2 °F 88% 30.12 in 9.0 mi Calm Calm - N/A   Scattered Clouds
10:53 PM 55.9 °F - 55.9 °F 100% 30.12 in 5.0 mi Calm Calm - N/A   Partly Cloudy
11:14 PM 55.4 °F - 53.6 °F 94% 30.12 in 1.8 mi Calm Calm - N/A   Clear
11:31 PM 55.4 °F - 55.4 °F 100% 30.11 in 2.5 mi Calm Calm - N/A   Clear
11:40 PM 57.2 °F - 55.4 °F 94% 30.12 in 3.0 mi Calm Calm - N/A   Clear
11:53 PM 55.9 °F - 55.9 °F 100% 30.12 in 4.0 mi Calm Calm - N/A   Clear